User: anonymous   Login
Location: Unspecified
(0.0000°N, 0.0000°E)
Time: 19:09:31
(UTC+00:00)
Language:

ONEWEB-0154 - Orbit

View from above orbital plane
View from above orbital plane
View from above satellite
View from above satellite

Ground track
Ground track

The orbit is defined by the following mean orbital elements,

1 48045U          26145.23439734 +.00000000 +00000-0 -51047-3 0 00008
2 48045  87.8941 324.7933 0001727  89.7375 270.3952 13.13469110    04
Epoch (UTC): 25 May 2026 05:37:31
Eccentricity: 0.0001727
inclination: 87.8941°
perigee height: 1208 km
apogee height: 1211 km
right ascension of ascending node: 324.7933°
argument of perigee: 89.7375°
revolutions per day: 13.13469110
mean anomaly at epoch: 270.3952°

The dashed part of the orbit path shows where the satellite is in the earth's shadow,  

DLR